Hoosier Classic - Old Bird Inventory

Station: INVENTORY - T Race

Distance: 10 Miles

Release: 11-Jan-2018 02:00

Weather Release:    Arrival:

Wind at Release:     Wind at Arrival:

Temp at Release: °    Temp at Arrival: °

Lofts: 326

Birds: 1123

Clocked: 259

Good Luck to Everyone!
Drops Pos Breeder Pigeon Name Color Sex Ent Arrival Speed To Win Eligible Op 1Op 2
1 Erp -Duviel Team - GA 0047-AU17-ERP Gladiator BB C 1 15:52:12.00 21.149 00:00:00 Yes
1 Malloy Flying Loft - TX 0129-AU17-MALL BWF H 1 15:52:12.20 21.149 00:00:00 Yes
1 Sheila Gabler - IL 0108-AU17-ADL SILV C 1 15:52:12.20 21.149 00:00:00 Yes
4 Debbie Ganus - IN 0323-AU17-GFL BB H 1 15:52:50.40 21.133 00:00:38 Yes
4 Ganus Family Loft - IN 0333-AU17-GFL BB H 1 15:52:50.40 21.133 00:00:38 Yes
6 Loft By Augustine - KS 7339-AU17-SWK DCH H 1 15:53:15.30 21.122 00:01:04 Yes
7 Jorge And Ayon - CA 2412-AU17-LOSB BB H 1 15:54:45.20 21.084 00:02:34 Yes
8 Baptista - IL 0014-AU17-BAPT sister#13 BCH H 1 15:55:43.40 21.060 00:03:31 Yes
9 Sandstrom Brothers Loft - MN 0723-AU17-SBL BCPD H 1 16:00:34.10 20.938 00:08:23 Yes
9 Me Fui Vega Loft - FL 0044-AU17-MEFU BB C 1 16:00:34.50 20.938 00:08:23 Yes
11 Aztec Loft - DE 0295-AU17-AZTE G Power GRIZ C 1 16:02:02.80 20.901 00:09:52 Yes
12 Malone Family Loft - IL 0085-AU17-MALO "Jacks Pick" BB C 1 16:08:52.70 20.733 00:16:42 Yes
13 Tyler Shupe - IN 0015-AU17-TYLE BB C 1 16:09:08.60 20.727 00:16:57 Yes
14 A P C Loft - TX 34701-AU17-ARPU BCH C 1 16:09:12.80 20.725 00:17:02 Yes
15 Daehn/Miele - FL 0203-AU17-NWFI 973 X 257 BBWF H 1 16:09:21.50 20.722 00:17:09 Yes
16 Orozco's Loft - MI 0017-AU17-OROZ BB C 1 16:09:29.40 20.718 00:17:19 Yes
16 Not Eligible - IN Disqualified 1 16:09:29.70 20.718 00:17:19 No
18 Hylek Loft - IN 0306-AU17-MICH BB C 1 16:09:31.80 20.717 00:17:21 Yes
19 America\'s Dream Loft - IL 0032-AU17-ADL RCH C 1 16:09:34.80 20.716 00:17:24 Yes
19 Two-Be-Won - NV 17109-AU17-TWOB See you later BB H 1 16:09:34.90 20.716 00:17:24 Yes
21 Speed Loft - MN 0514-AU17-ROYA DCH H 1 16:09:40.20 20.714 00:17:29 Yes
21 Stephen Brothers - CA 0728-AU17-COM BB H 1 16:09:40.90 20.714 00:17:29 Yes
23 Jones Family Loft - TX 7197-AU17-JFL BCH H 1 16:09:44.00 20.712 00:17:33 Yes
23 Wolf Den & Family Loft - IL 0019-AU17-WOLF BB C 1 16:09:45.80 20.712 00:17:33 Yes
25 Andy Skwiat - IN 0015-AU17-ANDY DCSP C 1 16:09:50.00 20.710 00:17:38 Yes
25 Andy Skwiat - IN 0040-AU17-ANDY Wild Dog PNSP C 2 16:09:50.80 20.710 00:17:38 Yes
27 Aubrina & Pappy - IN 0902-AU17-VK BSP H 1 16:09:51.30 20.709 00:17:41 Yes
27 F T L Loft - IN 0028-AU17-HUTC CHSP H 1 16:09:51.40 20.709 00:17:41 Yes
27 Flying Dragon Loft - GA 0533-AU17-GA BB H 1 16:09:51.80 20.709 00:17:41 Yes
27 Erp -Duviel Team - GA 0024-AU17-ERP Delmon dos BB C 2 16:09:53.30 20.709 00:17:41 Yes
31 Ganus Family Loft - IN 0717-AU17-GFL BB H 2 16:09:54.00 20.708 00:17:43 Yes
31 H & H Loft - TX 6907-AU17-VK BCH C 1 16:09:54.60 20.708 00:17:43 Yes
31 Erp -Duviel Team - GA 0048-AU17-ERP Ronda BB H 3 16:09:55.80 20.708 00:17:43 Yes
34 Flying Dragon Loft - GA 0529-AU17-GA BB H 2 16:09:56.50 20.707 00:17:46 Yes
34 Book & Van Wingerden - AZ 7039-AU17-BOOK BB H 1 16:09:57.30 20.707 00:17:46 Yes
34 Macken/Zittler - MN 0628-AU17-MACK WHIT C 1 16:09:57.30 20.707 00:17:46 Yes
34 Debbie Ganus - IN 0724-AU17-GFL BCH H 2 16:09:58.00 20.707 00:17:46 Yes
38 Ken Easley & Son Racing - NM 5023-AU17-EASL 4402 x 420 CH H 1 16:09:58.50 20.706 00:17:48 Yes
38 Andy Skwiat - IN 0009-AU17-ANDY Medusa BB H 3 16:09:58.60 20.706 00:17:48 Yes
38 Bill Kluge - TX 1725-AU17-COLD 30 BCH C 1 16:09:59.00 20.706 00:17:48 Yes
38 Dan & Pete - IL 0003-AU17-BFS BCH H 1 16:09:59.50 20.706 00:17:48 Yes
42 Andy Skwiat - IN 0022-AU17-ANDY BB H 4 16:10:01.40 20.705 00:17:51 Yes
42 Alca Girls - IL 62000-AU17-ARPU Mo BB H 1 16:10:03.00 20.705 00:17:51 Yes
42 Jorge And Ayon - CA 2453-AU17-LOSB BCH C 2 16:10:03.40 20.705 00:17:51 Yes
45 Debbie Ganus - IN 0031-AU17-GFL BCH H 3 16:10:03.50 20.704 00:17:53 Yes
45 Zheng Family Loft - NY 0785-AU17-ZFL SHILTON 785 BB C 1 16:10:04.00 20.704 00:17:53 Yes
45 Debbie Ganus - IN 0349-AU17-GFL BB H 4 16:10:04.00 20.704 00:17:53 Yes
45 Brito Loft - FL 0113-AU17-EMIL BB H 1 16:10:05.30 20.704 00:17:53 Yes
49 Upper Canada Loft - ON 2851-CU17-MISS Cigar Cock x Marshmallow BB H 1 16:10:05.90 20.703 00:17:56 Yes
49 H & H Loft - TX 6912-AU17-VK BCH H 2 16:10:06.60 20.703 00:17:56 Yes
49 Andy Skwiat - IN 0029-AU17-ANDY BSP H 5 16:10:07.20 20.703 00:17:56 Yes
52 Debbie Ganus - IN 0701-AU17-GFL CHWF H 5 16:10:08.90 20.702 00:17:58 Yes
52 Hynes - LA 1356-AU17-SLID BB C 1 16:10:08.90 20.702 00:17:58 Yes
54 777-Loft - MN 0215-AU17-SPR Wild Fire BB H 1 16:10:11.10 20.701 00:18:01 Yes
54 F T L Loft - IN 13873-AU17-AA BCH H 2 16:10:11.70 20.701 00:18:01 Yes
54 Team Sandy - IN 0039-AU17-ANDY Crystal Sands CHSP H 1 16:10:13.20 20.701 00:18:01 Yes
57 Hylek Loft - IN 0319-AU17-MICH BSP H 2 16:10:13.60 20.700 00:18:03 Yes
57 H & H Loft - TX 6903-AU17-VK BB C 3 16:10:14.10 20.700 00:18:03 Yes
57 F T L Loft - IN 6272-AU17-VK BB H 3 16:10:15.30 20.700 00:18:03 Yes
60 John Fukumoto - HI 0313-AU17-HAWN BB H 1 16:10:15.80 20.699 00:18:06 Yes
60 Max - CA 0910-AU17-MAX BSP C 1 16:10:15.90 20.699 00:18:06 Yes
60 K T Loft - IN 0200-AU17-KT BCH H 1 16:10:16.50 20.699 00:18:06 Yes
60 Wolf Den & Family Loft - IL 0003-AU17-WOLF BB C 2 16:10:16.60 20.699 00:18:06 Yes
64 Two-Be-Won - NV 17142-AU17-TWOB CH H 2 16:10:19.10 20.698 00:18:08 Yes
64 Wolf Den & Family Loft - IL 0020-AU17-WOLF BB C 3 16:10:19.20 20.698 00:18:08 Yes
64 A P C Loft - TX 17016-AU17-APC BB C 2 16:10:19.60 20.698 00:18:08 Yes
64 F T L Loft - IN 0033-AU17-HUTC BB C 4 16:10:20.20 20.698 00:18:08 Yes
68 Zapopan-Palomar-Ayon Loft - TX 0435-AU17-PALO BPD H 1 16:10:21.30 20.697 00:18:10 Yes
68 A F L - GA 0155-AU17-AFL ,,SAMANTHA'' BB H 1 16:10:21.30 20.697 00:18:10 Yes
68 Book & Van Wingerden - AZ 3902-AU17-SANT BB H 2 16:10:22.40 20.697 00:18:10 Yes
71 Master One - CA 70531-AU17-MAN BCH H 1 16:10:23.20 20.696 00:18:13 Yes
71 Rpm Syndicate - ON 0004-AU17-BFS BB C 1 16:10:23.30 20.696 00:18:13 Yes
73 Tegan Bogoslawski - IN 0077-AU17-ANDY BB C 2 16:10:25.70 20.695 00:18:15 Yes
73 G & L Loft - OR 2321-AU17-WPC BCH H 1 16:10:26.00 20.695 00:18:15 Yes
73 Andy Skwiat - IN 0038-AU17-ANDY BB C 6 16:10:26.70 20.695 00:18:15 Yes
73 Two-Be-Won - NV 17138-AU17-TWOB SILV C 3 16:10:27.70 20.695 00:18:15 Yes
73 Hylek Loft - IN 0318-AU17-MICH BB C 3 16:10:27.80 20.695 00:18:15 Yes
78 Aubrina & Pappy - IN 0919-AU17-VK BCH H 2 16:10:29.60 20.694 00:18:18 Yes
79 Malloy Flying Loft - TX 0118-AU17-MALL BB H 2 16:10:31.30 20.693 00:18:20 Yes
79 A P C Loft - TX 17035-AU17-APC BB H 3 16:10:32.50 20.693 00:18:20 Yes
81 Any Given Day Quest - TX 16503-AU17-QUES BB C 1 16:10:33.80 20.692 00:18:23 Yes
81 Aztec Loft - DE 0274-AU17-AZTE Lola BSP H 2 16:10:34.30 20.692 00:18:23 Yes
83 Hylek Loft - IN 0305-AU17-MICH BB C 4 16:10:35.50 20.691 00:18:25 Yes
83 Father & Son - CA 25218-AU17-ARPU All - A - Loan CHWF H 1 16:10:37.40 20.691 00:18:25 Yes
85 Bird Dog Syndicate 2 - CA 0025-AU17-BURG BB H 1 16:10:39.40 20.690 00:18:28 Yes
86 H & H Loft - TX 6918-AU17-VK BB C 4 16:10:40.40 20.689 00:18:30 Yes
87 Sanso Loft - FL 3915-AU17-HRPC BCH H 1 16:10:43.20 20.688 00:18:33 Yes
87 Twin Loft - FL 0590-AU17-HRPC BB H 1 16:10:43.80 20.688 00:18:33 Yes
89 Kowkow Family Loft - FL 0220-AU17-BFS BB H 1 16:10:45.80 20.687 00:18:35 Yes
89 Mc Laughlin Lofts - MA 1038-AU17-MCLO BB H 1 16:10:46.30 20.687 00:18:35 Yes
89 Ken Easley & Son Racing - NM 5018-AU17-EASL 1139 x 119 DCH H 2 16:10:47.50 20.687 00:18:35 Yes
92 Aubrina & Pappy - IN 0912-AU17-VK BSP H 3 16:10:48.50 20.686 00:18:38 Yes
92 Ganus Family Loft - IN 0718-AU17-GFL BB H 3 16:10:49.10 20.686 00:18:38 Yes
92 Aztec Loft - DE 0016-AU17-FCI BB C 3 16:10:49.80 20.686 00:18:38 Yes
95 A F L - GA 0121-AU17-AFL ,,SHADOW'' BB H 2 16:10:52.30 20.685 00:18:40 Yes
96 John Fukumoto - HI 0331-AU17-HAWN BB H 2 16:10:53.80 20.684 00:18:43 Yes
97 Daehn/Miele - FL 0253-AU17-NWFI 249 X 191 BWF H 2 16:10:55.80 20.683 00:18:45 Yes
98 Aztec Loft - DE 0267-AU17-AZTE Diva BWF H 4 16:11:02.70 20.680 00:18:52 Yes
99 Bodzianowski Loft - IL 1600-AU17-WRC BCH C 1 16:11:06.40 20.679 00:18:55 Yes
100 Rpm Syndicate - ON 0103-IF17-BUFF BB C 2 16:11:08.60 20.678 00:18:57 Yes

There are 258 bird records

Note: These Race Results are unofficial and subject to change until verified by the Race Committee and declared final.